Location: Hannover
(52.3723°N, 9.7339°E)
Time: 05:46:17
(UTC+01:00)

ISS - Pass Details

Date: 13 January 2018
Orbit: 401 x 406 km, 51.6° (Epoch: 17 January)

Event Time Altitude Azimuth Distance (km) Brightness Sun altitude
Exits shadow 05:34:43 19° 143° (SE) 1,023 -1.4 -25.2°
Drops below altitude 10° 05:35:55 10° 133° (SE) 1,462 -0.4 -25.0°
Sets 05:38:03 0° 126° (SE) 2,320 0.9 -24.6°
